Location: ???????
(55.9142°N, 37.8256°E)
Time: 02:56:01
(UTC+00:00)

Cosmos 1933 Rocket - Visible Passes

Search period start: 25 July 2024 00:00
Search period end: 04 August 2024 00:00
Orbit: 604 x 626 km, 82.5° (Epoch: 24 July)

Date Brightness Start Highest point End Pass type
(mag) Time Alt. Az. Time Alt. Az. Time Alt. Az.
28 Jul 6.4 00:12:31 10° ESE 00:14:38 13° E 00:16:45 10° NE visible
29 Jul 6.1 00:27:05 10° SE 00:30:20 20° E 00:33:36 10° NE visible
30 Jul 5.4 00:42:13 10° SSE 00:46:07 31° E 00:50:01 10° NNE visible
31 Jul 6.4 23:39:02 10° ESE 23:40:53 12° E 23:42:45 10° NE visible
01 Aug 6.1 23:53:27 10° SE 23:56:34 19° E 23:59:43 10° NE visible
03 Aug 5.4 00:08:31 10° SSE 00:12:20 29° E 00:16:09 10° NNE visible
